Regional Weather Roundup
Issued by NWS

Home | Current Version | Previous Version | Text Only | Print | Product List | Glossary Off
Versions: 1 2 3 4 5 6 7 8 9 10 11 12 13 14 15 16 17 18 19 20 21 22 23 24 25 26 27 28 29 30 31 32 33 34 35 36 37 38 39 40 41 42 43 44 45 46 47 48 49 50

461
ASUS43 KDMX 220406
RWRIA

WEATHER ROUNDUP FOR IOWA
NATIONAL WEATHER SERVICE DES MOINES IA
1100 PM CDT THU SEP 21 2017

NOTE: "FAIR" INDICATES FEW OR NO CLOUDS BELOW 12,000 FEET WITH NO
SIGNIFICANT WEATHER AND/OR OBSTRUCTIONS TO VISIBILITY.

* - THESE STATIONS ARE NOT NWS STATIONS...THUS NOT UNDER NWS
QUALITY CONTROL.  THEY ALSO DO NOT REPORT WEATHER SUCH
AS PRECIPITATION OR FOG.

IAZ001>003-012>014-020>022-031>034-043>046-220500-
   NORTHWEST IOWA

CITY           SKY/WX    TMP DP  RH WIND       PRES   REMARKS
CARROLL *      PTCLDY    77  72  83 S9        29.83R
CHEROKEE *     CLEAR     76  73  90 S7        29.79R
DENISON *      CLEAR     79  72  78 S15G21    29.82R HX  82
LE MARS *      CLEAR     81  73  78 S14       29.75R HX  85
ORANGE CITY *  CLEAR     81  75  83 S12       29.77R HX  86
SHELDON *      CLEAR     75  72  88 S12       29.76R
SIOUX CITY     CLEAR     80  74  81 S12       29.75R HX  85
SPENCER        CLEAR     77  71  82 S13       29.80R
STORM LAKE *   CLEAR     75  72  88 S10       29.82R
$$

IAZ055>058-069>071-079>083-090>094-220500-
   SOUTHWEST IOWA

CITY           SKY/WX    TMP DP  RH WIND       PRES   REMARKS
ATLANTIC *     CLEAR     79  72  78 S10       29.84R HX  82
AUDUBON *      CLEAR     77  72  83 S9        29.85S
CLARINDA *     CLEAR     79  73  83 S7G13     29.87R HX  82
COUNCIL BLFS * CLEAR     81  77  89 S14       29.81R HX  88
CRESTON *      CLEAR     77  70  78 S9        29.90R
HARLAN  *      CLEAR     79  73  83 S9        29.86R HX  82
LAMONI         CLEAR     79  70  74 S12       29.90R HX  82
RED OAK *      CLEAR     79  73  83 SE10      29.84R HX  82
SHENANDOAH *   CLEAR     81  73  78 S13G18    29.83R HX  85
$$

IAZ047>049-059>061-072>074-084-220500-
   CENTRAL IOWA

CITY           SKY/WX    TMP DP  RH WIND       PRES   REMARKS
AMES           CLEAR     77  72  84 S10       29.87R
ANKENY *       CLEAR     79  70  73 S10       29.88R HX  81
BOONE *        CLEAR     79  70  73 S14       29.86S HX  81
CHARITON *     CLEAR     79  70  73 S12       29.90R HX  81
DES MOINES     CLEAR     81  69  67 S14       29.87R HX  84
GRINNELL*      CLEAR     76  71  82 SE10      29.93R
KNOXVILLE *    CLEAR     77  68  73 SE8G14    29.89R
MARSHALLTOWN   CLEAR     75  71  87 SE7       29.89R
NEWTON *       CLEAR     77  70  78 S9        29.91R
PELLA *        CLEAR     78  68  72 SE8       29.91S HX  80
PERRY *          N/A     78  72  81 S9        29.86R HX  80
$$

IAZ004>006-015-016-023>025-035-036-220500-
   NORTH CENTRAL IOWA

CITY           SKY/WX    TMP DP  RH WIND       PRES   REMARKS
ALGONA *       CLEAR     77  72  83 S13       29.84R
CLARION *      PTCLDY    79  72  78 S14       29.85R HX  82
ESTHERVILLE    CLEAR     76  72  87 S14       29.80R
FORT DODGE *   CLEAR     80  70  71 S13G18    29.85  HX  83
MASON CITY     CLEAR     76  69  79 SE13G21   29.89R
FOREST CITY *    N/A     75  70  83 SE10      29.86R
WEBSTER CITY * CLEAR     79  70  73 SE9       29.84R HX  81
IOWA FALLS *     N/A     76  71  83 SE9       29.89S
$$

IAZ007>011-017>019-026>030-037>042-050>054-066-220500-
   NORTHEAST IOWA

CITY           SKY/WX    TMP DP  RH WIND       PRES   REMARKS
CEDAR RAPIDS   CLEAR     77  71  82 S12       29.93R
CHARLES CITY * CLEAR     75  70  83 SE10G16   29.91R
CLINTON *      CLEAR    N/A N/A N/A S8        29.97S
DECORAH *      CLEAR     73  68  83 SE9G16    29.93R
DUBUQUE        CLEAR     73  68  84 S10       29.97R
MONTICELLO *   CLEAR     75  70  83 SE8       29.95S
OELWEIN *      CLEAR     73  70  88 SE10      29.94R
WATERLOO       CLEAR     76  68  76 SE14      29.90R
$$

IAZ064-065-067-068-078-220500-
   EAST CENTRAL IOWA

CITY           SKY/WX    TMP DP  RH WIND       PRES   REMARKS
DAVENPORT      CLEAR     76  69  79 S7        29.98R
IOWA CITY      CLEAR     75  71  87 SE5       29.95R
MT. PLEASANT * CLEAR     76  69  78 S7        29.95R
MUSCATINE *    CLEAR     73  70  88 CALM      29.95R
QUAD CITIES    CLEAR     77  69  76 SE9       29.95S
$$

IAZ062-063-075>077-085>089-095>099-220500-
   SOUTHEAST IOWA

CITY           SKY/WX    TMP DP  RH WIND       PRES   REMARKS
BURLINGTON     CLEAR     80  70  71 S15G22    29.95S HX  83
FAIRFIELD *    PTCLDY    77  70  78 SE8       29.94R
FORT MADISON * CLEAR     79  70  73 SE10G18   29.96S HX  81
KEOKUK *       CLEAR     79  70  73 SE9       29.95R HX  81
OSKALOOSA *      N/A     76  71  86 SE7       29.93R
OTTUMWA        PTCLDY    78  72  81 S9        29.92R HX  80
WASHINGTON *   CLEAR     73  72  94 SE6       29.95S
$$

ABBREVIATIONS USED IN REMARKS
   TC - TEMPERATURES IN CELSIUS
  WCI - WIND CHILL INDEX
   HX - HEAT INDEX
  VSB - VISIBILITY
$$





USA.gov is the U.S. government's official web portal to all federal, state and local government web resources and services.